Location: Schommer Observatory
(40.5200°N, 74.4500°W)
Time: 02:42:40
(UTC-05:00)

N. Korean satellite - Pass Details

Date: 14 November 2017
Orbit: 460 x 514 km, 97.2° (Epoch: 23 November)

Event Time Altitude Azimuth Distance (km) Brightness Sun altitude
Rises 18:46:14 0° 199° (SSW) 2,473 10.5 -23.8°
Reaches altitude 10° 18:48:40 10° 218° (SW) 1,609 9.7 -24.3°
Maximum altitude 18:51:13 19° 266° (W) 1,158 9.3 -24.8°
Drops below altitude 10° 18:53:49 10° 314° (NW) 1,632 9.7 -25.3°
Sets 18:56:19 0° 332° (NNW) 2,524 10.5 -25.8°
